| time (UTC) | temp C | wind direction | speed KPH | gust KPH | rain 1hr cm | rain 24hr cm | rain mn cm | humidity % | barometer mb |
| 20260507144608 | 13 | 360 | 1.6 | 20.9 | 0.00 | 0.00 | 0.00 | 43 | 1009.5 |
| 20260507143101 | 13 | 360 | 4.8 | 16.1 | 0.00 | 0.00 | 0.00 | 42 | 1009.6 |
| 20260507141600 | 13 | 360 | 8.0 | 29.0 | 0.00 | 0.00 | 0.00 | 41 | 1009.3 |
| 20260507140050 | 13 | 360 | 4.8 | 24.1 | 0.00 | 0.00 | 0.00 | 42 | 1009.3 |
| 20260507134552 | 12 | 360 | 3.2 | 27.4 | 0.00 | 0.00 | 0.00 | 43 | 1009.4 |
| 20260507133116 | 12 | 360 | 11.3 | 30.6 | 0.00 | 0.00 | 0.00 | 43 | 1009.3 |
| 20260507131545 | 11 | 360 | 4.8 | 27.4 | 0.00 | 0.00 | 0.00 | 44 | 1009.3 |
| 20260507130053 | 11 | 360 | 6.4 | 25.7 | 0.00 | 0.00 | 0.00 | 45 | 1009.2 |
| 20260507124542 | 11 | 360 | 11.3 | 32.2 | 0.00 | 0.00 | 0.00 | 43 | 1009.2 |
| 20260507123041 | 11 | 360 | 11.3 | 41.8 | 0.00 | 0.00 | 0.00 | 42 | 1008.8 |
| 20260507121535 | 11 | 360 | 8.0 | 32.2 | 0.00 | 0.00 | 0.00 | 43 | 1008.7 |
| 20260507120035 | 10 | 360 | 8.0 | 30.6 | 0.00 | 0.00 | 0.00 | 46 | 1008.8 |
| 20260507114528 | 9 | 360 | 6.4 | 30.6 | 0.00 | 0.00 | 0.00 | 47 | 1008.9 |
| 20260507113033 | 9 | 360 | 1.6 | 33.8 | 0.00 | 0.00 | 0.00 | 48 | 1008.9 |
| 20260507111526 | 8 | 360 | 4.8 | 22.5 | 0.00 | 0.00 | 0.00 | 49 | 1008.8 |
| 20260507110036 | 8 | 360 | 9.7 | 24.1 | 0.00 | 0.00 | 0.00 | 50 | 1008.9 |
| 20260507104528 | 8 | 360 | 9.7 | 24.1 | 0.00 | 0.00 | 0.00 | 48 | 1009.0 |
| 20260507103028 | 10 | 360 | 9.7 | 24.1 | 0.00 | 0.00 | 0.00 | 45 | 1009.0 |
| 20260507101532 | 10 | 360 | 11.3 | 35.4 | 0.00 | 0.00 | 0.00 | 42 | 1009.1 |
| 20260507100023 | 11 | 360 | 8.0 | 33.8 | 0.00 | 0.00 | 0.00 | 40 | 1009.1 |
| 20260507094523 | 11 | 360 | 12.9 | 33.8 | 0.00 | 0.00 | 0.00 | 39 | 1009.1 |
| 20260507093020 | 12 | 360 | 27.4 | 43.5 | 0.00 | 0.00 | 0.00 | 38 | 1009.1 |
| 20260507091523 | 12 | 360 | 11.3 | 37.0 | 0.00 | 0.00 | 0.00 | 38 | 1009.2 |
| 20260507090015 | 12 | 360 | 9.7 | 35.4 | 0.00 | 0.00 | 0.00 | 37 | 1009.4 |
| 20260507084513 | 12 | 360 | 6.4 | 27.4 | 0.00 | 0.00 | 0.00 | 37 | 1009.5 |
| 20260507083010 | 11 | 360 | 9.7 | 35.4 | 0.00 | 0.00 | 0.00 | 38 | 1009.7 |
| 20260507081508 | 11 | 360 | 6.4 | 30.6 | 0.00 | 0.00 | 0.00 | 40 | 1009.9 |
| 20260507080006 | 10 | 360 | 6.4 | 24.1 | 0.00 | 0.00 | 0.00 | 41 | 1010.1 |
| 20260507074504 | 10 | 360 | 8.0 | 27.4 | 0.00 | 0.00 | 0.00 | 42 | 1010.4 |
| 20260507073002 | 11 | 360 | 3.2 | 27.4 | 0.00 | 0.00 | 0.00 | 40 | 1010.8 |
| 20260507071600 | 11 | 360 | 3.2 | 30.6 | 0.00 | 0.00 | 0.00 | 37 | 1010.8 |
| 20260507070105 | 11 | 360 | 6.4 | 29.0 | 0.00 | 0.00 | 0.00 | 38 | 1010.9 |
| 20260507064558 | 10 | 360 | 17.7 | 33.8 | 0.00 | 0.00 | 0.00 | 40 | 1011.1 |
| 20260507063049 | 8 | 360 | 11.3 | 29.0 | 0.00 | 0.00 | 0.00 | 43 | 1011.3 |
| 20260507061545 | 7 | 360 | 11.3 | 30.6 | 0.00 | 0.00 | 0.00 | 50 | 1011.4 |
| 20260507060053 | 7 | 360 | 12.9 | 33.8 | 0.00 | 0.00 | 0.00 | 54 | 1011.3 |
| 20260507054540 | 7 | 360 | 8.0 | 33.8 | 0.00 | 0.00 | 0.00 | 56 | 1011.6 |
| 20260507053040 | 6 | 360 | 19.3 | 29.0 | 0.00 | 0.00 | 0.00 | 57 | 1011.5 |
| 20260507051537 | 6 | 360 | 8.0 | 24.1 | 0.00 | 0.00 | 0.00 | 58 | 1011.9 |
| 20260507050038 | 7 | 360 | 1.6 | 20.9 | 0.00 | 0.00 | 0.00 | 57 | 1012.0 |
| 20260507044547 | 6 | 360 | 14.5 | 24.1 | 0.00 | 0.00 | 0.00 | 58 | 1012.1 |
| 20260507043034 | 6 | 360 | 6.4 | 22.5 | 0.00 | 0.00 | 0.00 | 61 | 1012.1 |
| 20260507041533 | 6 | 360 | 11.3 | 25.7 | 0.00 | 0.00 | 0.00 | 61 | 1012.2 |
| 20260507040041 | 6 | 360 | 6.4 | 20.9 | 0.00 | 0.00 | 0.00 | 61 | 1012.3 |
| 20260507034540 | 6 | 360 | 0.0 | 14.5 | 0.00 | 0.00 | 0.00 | 60 | 1012.5 |
| 20260507033043 | 6 | 360 | 3.2 | 14.5 | 0.00 | 0.00 | 0.00 | 59 | 1012.6 |
| 20260507031544 | 7 | 360 | 4.8 | 16.1 | 0.00 | 0.00 | 0.00 | 58 | 1012.8 |
| 20260507030030 | 7 | 360 | 0.0 | 1.6 | 0.00 | 0.00 | 0.00 | 56 | 1012.9 |
| 20260507024527 | 7 | 360 | 3.2 | 14.5 | 0.00 | 0.00 | 0.00 | 54 | 1012.9 |
| 20260507023025 | 8 | 360 | 1.6 | 19.3 | 0.00 | 0.00 | 0.00 | 51 | 1013.1 |
| 20260507021525 | 9 | 360 | 4.8 | 19.3 | 0.00 | 0.00 | 0.00 | 48 | 1013.2 |
| 20260507020025 | 10 | 360 | 4.8 | 19.3 | 0.00 | 0.00 | 0.00 | 42 | 1013.1 |
| 20260507014525 | 12 | 360 | 0.0 | 0.0 | 0.00 | 0.00 | 0.00 | 33 | 1013.0 |
| 20260507013121 | 12 | 360 | 0.0 | 0.0 | 0.00 | 0.00 | 0.00 | 30 | 1013.2 |
| 20260507011530 | 13 | 360 | 0.0 | 0.0 | 0.00 | 0.00 | 0.00 | 29 | 1013.4 |
| 20260507010020 | 13 | 360 | 0.0 | 4.8 | 0.00 | 0.00 | 0.00 | 28 | 1013.5 |
| 20260507004517 | 13 | 360 | 0.0 | 24.1 | 0.00 | 0.05 | 0.00 | 27 | 1013.7 |
| 20260507003015 | 13 | 360 | 0.0 | 20.9 | 0.00 | 0.05 | 0.00 | 28 | 1013.8 |
| 20260507001519 | 13 | 360 | 0.0 | 12.9 | 0.00 | 0.05 | 0.00 | 28 | 1013.9 |
| 20260507000013 | 13 | 360 | 0.0 | 24.1 | 0.00 | 0.05 | 0.00 | 28 | 1014.1 |
| 20260506234511 | 13 | 360 | 6.4 | 29.0 | 0.00 | 0.10 | 0.00 | 28 | 1014.2 |
| 20260506233010 | 13 | 360 | 3.2 | 19.3 | 0.00 | 0.10 | 0.00 | 28 | 1014.3 |
| 20260506231509 | 13 | 360 | 4.8 | 25.7 | 0.00 | 0.10 | 0.00 | 29 | 1014.7 |
| 20260506230007 | 13 | 360 | 4.8 | 20.9 | 0.00 | 0.10 | 0.00 | 29 | 1014.7 |
| 20260506224504 | 12 | 360 | 1.6 | 24.1 | 0.00 | 0.10 | 0.00 | 31 | 1014.9 |
| 20260506223003 | 12 | 360 | 0.0 | 16.1 | 0.00 | 0.10 | 0.00 | 31 | 1015.3 |
| 20260506221600 | 12 | 360 | 0.0 | 32.2 | 0.00 | 0.10 | 0.00 | 31 | 1015.5 |
| 20260506214558 | 13 | 360 | 3.2 | 27.4 | 0.00 | 0.10 | 0.00 | 30 | 1016.0 |
| 20260506213053 | 12 | 360 | 6.4 | 20.9 | 0.00 | 0.10 | 0.00 | 29 | 1016.3 |
| 20260506211551 | 12 | 360 | 1.6 | 25.7 | 0.00 | 0.10 | 0.00 | 30 | 1016.6 |
| 20260506210048 | 11 | 360 | 0.0 | 25.7 | 0.00 | 0.10 | 0.00 | 31 | 1016.9 |
| 20260506204548 | 12 | 360 | 6.4 | 24.1 | 0.00 | 0.10 | 0.00 | 30 | 1017.1 |
| 20260506203045 | 12 | 360 | 0.0 | 20.9 | 0.00 | 0.10 | 0.00 | 31 | 1017.3 |
| 20260506201544 | 12 | 360 | 1.6 | 24.1 | 0.00 | 0.10 | 0.00 | 30 | 1017.5 |
| 20260506200042 | 11 | 360 | 1.6 | 30.6 | 0.00 | 0.10 | 0.00 | 32 | 1017.7 |
| 20260506194539 | 11 | 360 | 6.4 | 22.5 | 0.00 | 0.15 | 0.00 | 32 | 1018.1 |
| 20260506193036 | 10 | 360 | 1.6 | 24.1 | 0.00 | 0.15 | 0.00 | 36 | 1018.2 |
| 20260506191535 | 10 | 360 | 4.8 | 20.9 | 0.00 | 0.15 | 0.00 | 37 | 1018.4 |
| 20260506190038 | 10 | 360 | 3.2 | 17.7 | 0.00 | 0.15 | 0.00 | 35 | 1018.7 |
| 20260506184536 | 10 | 360 | 1.6 | 24.1 | 0.00 | 0.23 | 0.00 | 35 | 1018.8 |
| 20260506183027 | 9 | 360 | 0.0 | 29.0 | 0.00 | 0.23 | 0.00 | 36 | 1019.0 |
| 20260506181525 | 8 | 360 | 1.6 | 16.1 | 0.00 | 0.23 | 0.00 | 40 | 1019.3 |
| 20260506180027 | 8 | 360 | 1.6 | 24.1 | 0.00 | 0.23 | 0.00 | 40 | 1019.4 |
| 20260506174522 | 8 | 360 | 1.6 | 20.9 | 0.00 | 0.23 | 0.00 | 42 | 1019.7 |
| 20260506173020 | 8 | 360 | 4.8 | 25.7 | 0.00 | 0.23 | 0.00 | 41 | 1019.7 |
| 20260506171516 | 8 | 360 | 1.6 | 20.9 | 0.00 | 0.23 | 0.00 | 42 | 1019.7 |
| 20260506170013 | 7 | 360 | 0.0 | 14.5 | 0.00 | 0.23 | 0.00 | 43 | 1019.9 |
| 20260506164511 | 7 | 360 | 3.2 | 16.1 | 0.00 | 0.23 | 0.00 | 43 | 1020.0 |
| 20260506163016 | 6 | 360 | 1.6 | 20.9 | 0.00 | 0.23 | 0.00 | 48 | 1020.0 |
| 20260506161506 | 6 | 360 | 0.0 | 22.5 | 0.00 | 0.23 | 0.00 | 49 | 1020.0 |
| 20260506160006 | 6 | 360 | 0.0 | 14.5 | 0.00 | 0.23 | 0.00 | 45 | 1019.9 |
| 20260506154502 | 6 | 360 | 0.0 | 9.7 | 0.00 | 0.25 | 0.00 | 53 | 1020.0 |
| 20260506153100 | 6 | 360 | 0.0 | 12.9 | 0.00 | 0.25 | 0.00 | 54 | 1020.0 |
| 20260506151556 | 5 | 360 | 1.6 | 12.9 | 0.00 | 0.25 | 0.00 | 54 | 1020.0 |
| 20260506150051 | 5 | 360 | 4.8 | 9.7 | 0.00 | 0.25 | 0.00 | 58 | 1020.0 |